カタログに戻る

CZ-4 DEB

運用中PO
NORAD 26123·DEBRIS·🇨🇳 China

打ち上げ Oct 14, 1999 から Taiyuan Satellite Launch Center

Loading…

次のパス (今後24時間)

TLE

最新Source: Space-Track

元期: Sep 14, 2026, 01:03 UTC

1 26123U 99057K   26257.04416786  .00001712  00000-0  30325-3 0  9999
2 26123  98.6631 274.6629 0053226 352.6928   7.3493 14.67864480403548

AllMySatでCZ-4 DEBをリアルタイム追跡

Download on the App Store